TimeMST,TemperatureF,Dew PointF,Humidity,Sea Level PressureIn,VisibilityMPH,Wind Direction,Wind SpeedMPH,Gust SpeedMPH,PrecipitationIn,Events,Conditions,WindDirDegrees,DateUTC
12:53 AM,9.0,1.9,73,30.72,10.0,WNW,9.2,-,N/A,,Clear,290,2013-11-22 07:53:00
1:53 AM,10.0,-0.9,61,30.71,10.0,WNW,10.4,-,N/A,,Clear,290,2013-11-22 08:53:00
2:53 AM,10.9,-2.0,56,30.70,10.0,WNW,9.2,-,N/A,,Clear,290,2013-11-22 09:53:00
3:53 AM,10.9,-2.0,56,30.69,10.0,West,11.5,-,N/A,,Clear,280,2013-11-22 10:53:00
4:53 AM,10.9,-0.9,59,30.71,10.0,WNW,9.2,-,N/A,,Clear,300,2013-11-22 11:53:00
5:53 AM,12.0,-0.9,56,30.70,10.0,WNW,9.2,-,N/A,,Clear,290,2013-11-22 12:53:00
6:53 AM,12.9,-0.0,56,30.70,10.0,WNW,6.9,-,N/A,,Clear,290,2013-11-22 13:53:00
7:53 AM,15.1,1.0,54,30.70,10.0,WNW,5.8,-,N/A,,Clear,300,2013-11-22 14:53:00
8:53 AM,18.0,1.9,50,30.70,10.0,West,5.8,-,N/A,,Clear,260,2013-11-22 15:53:00
9:53 AM,25.0,1.0,36,30.65,9.0,SW,5.8,-,N/A,,Clear,220,2013-11-22 16:53:00
10:53 AM,28.9,-0.0,29,30.62,10.0,SW,8.1,-,N/A,,Clear,230,2013-11-22 17:53:00
11:53 AM,30.0,3.0,32,30.62,10.0,SSW,10.4,-,N/A,,Clear,210,2013-11-22 18:53:00
12:53 PM,30.9,5.0,33,30.61,10.0,WSW,9.2,-,N/A,,Clear,240,2013-11-22 19:53:00
1:53 PM,32.0,7.0,35,30.59,10.0,Calm,Calm,-,N/A,,Clear,0,2013-11-22 20:53:00
2:53 PM,30.9,3.0,31,30.61,10.0,Variable,4.6,-,N/A,,Clear,0,2013-11-22 21:53:00
3:53 PM,28.9,7.0,40,30.65,10.0,ENE,5.8,-,N/A,,Clear,60,2013-11-22 22:53:00
4:53 PM,21.9,-0.9,37,30.70,10.0,North,6.9,-,N/A,,Clear,360,2013-11-22 23:53:00
5:53 PM,19.9,1.0,44,30.74,10.0,NW,5.8,-,N/A,,Clear,310,2013-11-23 00:53:00
6:53 PM,19.0,3.0,50,30.74,10.0,WNW,6.9,-,N/A,,Clear,300,2013-11-23 01:53:00
7:53 PM,19.0,1.0,46,30.74,10.0,NW,6.9,-,N/A,,Clear,320,2013-11-23 02:53:00
8:53 PM,19.0,1.0,46,30.72,10.0,NW,8.1,-,N/A,,Clear,310,2013-11-23 03:53:00
9:53 PM,12.9,1.0,59,30.74,10.0,West,6.9,-,N/A,,Clear,280,2013-11-23 04:53:00
10:53 PM,15.1,1.0,54,30.71,10.0,WNW,8.1,-,N/A,,Clear,290,2013-11-23 05:53:00
11:53 PM,16.0,3.0,57,30.71,10.0,West,9.2,-,N/A,,Clear,280,2013-11-23 06:53:00